Regional Weather Roundup
Issued by NWS Charleston, SC

Current Version | Previous Version | Graphics & Text | Print | Product List | Glossary On
Versions: 1 2 3 4 5 6 7 8 9 10 11 12 13 14 15 16 17 18 19 20 21 22 23 24 25 26 27 28 29 30 31 32 33 34 35 36 37 38 39 40 41 42 43 44 45 46 47 48 49 50
000
ASUS42 KCHS 220625
RWRCHS

REGIONAL WEATHER ROUNDUP
NATIONAL WEATHER SERVICE CHARLESTON SC
100 AM EST MON DEC 22 2014

NOTE: "FAIR" INDICATES FEW OR NO CLOUDS BELOW 12,000 FEET WITH NO
SIGNIFICANT WEATHER AND/OR OBSTRUCTIONS TO VISIBILITY.

NOT ALL STATIONS ARE QUALITY CONTROLLED BY THE NATIONAL
WEATHER SERVICE. USE DATA WITH CAUTION...ESPECIALLY
DEWPOINT OBSERVATIONS.

SCZ027-030-031-034>040-042>050-220700-
...SOUTHEAST SOUTH CAROLINA...

CITY           SKY/WX    TMP DP  RH WIND       PRES   REMARKS
N CHARLESTON   LGT RAIN  47  46  97 NE8       30.08F FOG
6HR MIN TEMP:  47; 6HR MAX TEMP:  49; 6HR PCP:  0.16;

WATERFRONT PRK NOT AVBL
MOUNT PLEASANT LGT RAIN  48  48 100 CALM      30.07F
PINOPOLIS        N/A     46  45  93 NE8       30.02F
MONCKS CORNER  CLOUDY    46  45  93 NE8       30.08F
SUMMERVILLE    CLOUDY    46  46 100 NE3       30.09F
BEAUFORT MCAS  CLOUDY    48  46  93 NE7       30.06F
6HR MIN TEMP:  47; 6HR MAX TEMP:  49; 6HR PCP:  0.23;

BEAUFORT ARPT  LGT RAIN  48  48 100 NE10      30.05F
HILTON HEAD IS CLOUDY    48  48 100 N5        30.06F FOG
WALTERBORO     CLOUDY    46 N/A N/A NE5       30.08F
ALLENDALE      CLOUDY    46  46 100 N6        30.09S

...SOUTHERN MIDLANDS AND PEE DEE...

CITY           SKY/WX    TMP DP  RH WIND       PRES   REMARKS
GEORGETOWN     NOT AVBL
KINGSTREE      NOT AVBL
ORANGEBURG     LGT RAIN  46  43  89 NE7       30.10F FOG
6HR MIN TEMP:  46; 6HR MAX TEMP:  51; 6HR PCP:  0.26;

BARNWELL       CLOUDY    46  46 100 E5        30.10F
AIKEN          RAIN      45  45 100 NE6       30.12F
MANNING        NOT AVBL
COLUMBIA       LGT RAIN  46  44  93 NE6       30.11F FOG
6HR MIN TEMP:  47; 6HR MAX TEMP:  51; 6HR PCP:  0.24;

SUMTER         LGT RAIN  43  41  93 NE14      30.09F
6HR MIN TEMP:  44; 6HR MAX TEMP:  51; 6HR PCP:  0.13;

FLORENCE       LGT RAIN  44  40  85 N7        30.14S FOG
6HR MIN TEMP:  44; 6HR MAX TEMP:  50; 6HR PCP:  0.13;

MYRTLE BEACH   CLOUDY    45  43  93 N7        30.08F
N MYRTLE BEACH RAIN      45  43  93 NE12      30.09F FOG
6HR MIN TEMP:  45; 6HR MAX TEMP:  47; 6HR PCP:  0.03;


$$

GAZ063-065-086>088-099>101-113>116-118-119-134>141-150-220700-
...SOUTHEAST GEORGIA...

CITY           SKY/WX    TMP DP  RH WIND       PRES   REMARKS
SAVANNAH ARPT  CLOUDY    48  46  93 N5        30.07F
6HR MIN TEMP:  47; 6HR MAX TEMP:  48; 6HR PCP:  0.42;

HUNTER AAF     CLOUDY    48  48 100 N6        30.04F
6HR MIN TEMP:  48; 6HR MAX TEMP:  49; 6HR PCP:  0.42;

FORT STEWART   CLOUDY    47  46  94 NE6       30.05F
6HR MIN TEMP:  47; 6HR MAX TEMP:  48; 6HR PCP:  0.34;

STATESBORO     DRIZZLE   46  46 100 NE5       30.07S
SYLVANIA       DRIZZLE   47  47 100 NE6       30.09S
CLAXTON        CLOUDY    46  46 100 NE5       30.06F

...CSRA...CENTRAL AND FAR SOUTHEAST GEORGIA...

CITY           SKY/WX    TMP DP  RH WIND       PRES   REMARKS
THOMSON        CLOUDY    48  48 100 NE6       30.13F
AUGUSTA-BUSH   LGT RAIN  47  46  97 CALM      30.11S FOG
6HR MIN TEMP:  47; 6HR MAX TEMP:  49; 6HR PCP:  0.13;

AUGUSTA-DANIEL CLOUDY    48  47  96 NE7       30.10S FOG
SWAINSBORO     DRIZZLE  N/A N/A N/A E5        30.08F
VIDALIA        CLOUDY    46  46 100 NE3       30.07R FOG
EASTMAN        CLOUDY    47  47 100 N5        30.10S FOG
HAZLEHURST     CLOUDY    49  49 100 N5        30.05R FOG
ALMA           CLOUDY    48  47  96 VRB3      30.04F FOG
6HR MIN TEMP:  48; 6HR MAX TEMP:  50; 6HR PCP:  0.01;

WAYCROSS       CLOUDY    53  52  98 E6        30.03F
JESUP          CLOUDY    52  50  93 CALM      30.04F
BAXLEY         CLOUDY    50  48  93 NE5       30.03F FOG
BRUNSWICK      CLOUDY    52  50  93 CALM      30.06F
SAINT SIMONS   LGT RAIN  54  52  93 N7        30.05F FOG
6HR MIN TEMP:  54; 6HR MAX TEMP:  56; 6HR PCP:  0.17;


$$

SCZ027-028-034-036>038-045-046-048>050-GAZ119-141-220700-
...LAKE AND SUPPLEMENTAL COASTAL OBSERVATIONS...

STATION/POSITION TIME  TEMP    WIND        PRES    WAVE   SWELL
                       AIR SEA DIR/SP/G            HT/PER HT/PER/DIR
                 (UTC) (F)     (DEG/KT/KT) (MB)    (FT/S) (FT/S/D)
UPR LAKE MARION  NOT AVBL
WINYAH BAY       0600   46      50/ 10     1018.0S
LAKE MURRAY      0600   45      20/  3/  6 1019.6F
ACE BASIN NERRS  0600   47     360/  1     1018.0S
FORT PULASKI     0600   50 56   30/  6/  8 1018.0F
SAPELO ISLAND    0600   51      10/  7     1017.0F

$$

ANZ835-935-AMZ111-154-330-350-352-354-370-450-454-472-220700-
...C-MAN AND BUOY OBSERVATIONS...

STATION/POSITION TIME  TEMP    WIND        PRES    WAVE   SWELL
                       AIR SEA DIR/SP/G            HT/PER HT/PER/DIR
                 (UTC) (F)     (DEG/KT/KT) (MB)    (FT/S) (FT/S/D)
BUOY 41004       0600   70 72   80/ 17/ 21 1015.8F   7/ 7   3/ 8
BUOY 41008       0600   57 58   30/ 16/ 17 1017.1F   5/ 7   2/ 80/ 8
FOLLY BEACH CMAN 0600   49      30/ 15/ 17 1018.7F
CAPERS NEARSHORE 0500   52      60/ 23/ 27   N/A
FRIPP NEARSHORE  NOT AVBL


STATION/POSITION TIME  TEMP    WIND        PRES    WAVE   SWELL
                       AIR SEA DIR/SP/G            HT/PER HT/PER/DIR
                 (UTC) (F)     (DEG/KT/KT) (MB)    (FT/S) (FT/S/D)
5E ST. MARYS GA  0600      61                N/A     4/ 7
FRYING PAN BUOY  0600   60 69   50/ 21/ 25 1018.3F   8/ 8
BUOY 41025       0600   63                 1020.4F   4/ 5
CAPE LOOKOUT NC  0600   47      10/ 14/ 18 1020.2F
BUOY 41002       0505   71 72  130/  8/ 10 1018.7F   6/ 7   5/ 50/ 7
BUOY 41010       0600   75 77  180/ 12/ 16 1017.5F   3/ 8   3/ 40/ 8
ST AUGUSTINE FL  0600   62     210/  4/  5 1017.7F


$$



USA.gov is the U.S. government's official web portal to all federal, state and local government web resources and services.